GW5161 Weather Reports


Display with metric or nautical units.
time (UTC)temp
F
wind
direction
speed
MPH
gust
MPH
rain 1hr
in
rain 24hr
in
rain mn
in
humidity
%
barometer
mb
20260507142433 60 83 2.0 2.0 0.00 0.00 0.00 78 1016.2
20260507141931 60 74 1.0 2.0 0.00 0.00 0.00 79 1015.9
20260507141426 59 53 1.0 1.0 0.00 0.00 0.00 80 1015.8
20260507140923 59 98 2.0 2.0 0.00 0.00 0.00 80 1015.8
20260507140420 59 58 1.0 2.0 0.00 0.00 0.00 80 1015.9
20260507135918 59 58 1.0 1.0 0.00 0.00 0.00 81 1015.6
20260507135414 60 50 0.0 1.0 0.00 0.00 0.00 80 1015.7
20260507134912 60 18 0.0 0.0 0.00 0.00 0.00 83 1015.7
20260507134408 59 35 0.0 0.0 0.00 0.00 0.00 84 1015.6
20260507133904 58 41 0.0 0.0 0.00 0.00 0.00 86 1015.4
20260507133400 57 33 0.0 0.0 0.00 0.00 0.00 87 1015.3
20260507132859 56 33 0.0 0.0 0.00 0.00 0.00 88 1015.5
20260507132355 55 41 0.0 0.0 0.00 0.00 0.00 89 1015.4
20260507131852 55 45 0.0 1.0 0.00 0.00 0.00 89 1015.4
20260507131348 54 63 1.0 1.0 0.00 0.00 0.00 89 1015.4
20260507130845 54 57 1.0 1.0 0.00 0.00 0.00 88 1015.3
20260507130342 54 44 0.0 0.0 0.00 0.00 0.00 88 1015.2
20260507125842 54 44 0.0 0.0 0.00 0.00 0.00 88 1015.2
20260507125338 55 43 0.0 0.0 0.00 0.00 0.00 88 1015.2
20260507124836 55 45 0.0 1.0 0.00 0.00 0.00 89 1015.3
20260507124332 55 47 0.0 1.0 0.00 0.00 0.00 89 1015.1
20260507123831 54 51 1.0 1.0 0.00 0.00 0.00 89 1015.1
20260507123328 54 45 0.0 1.0 0.00 0.00 0.00 89 1015.2
20260507122824 54 41 0.0 1.0 0.00 0.00 0.00 89 1015.2
20260507122319 54 41 0.0 0.0 0.00 0.00 0.00 89 1015.2
20260507121815 54 41 0.0 0.0 0.00 0.00 0.00 89 1015.2
20260507121311 55 41 0.0 0.0 0.00 0.00 0.00 89 1015.2
20260507120808 55 41 0.0 0.0 0.00 0.00 0.00 89 1015.3
20260507120304 55 41 0.0 0.0 0.00 0.00 0.00 89 1015.3
20260507115801 55 15 0.0 1.0 0.00 0.00 0.00 89 1015.2
20260507115256 55 20 0.0 0.0 0.00 0.00 0.00 89 1015.1
20260507114752 55 6 1.0 1.0 0.00 0.00 0.00 89 1015.3
20260507114250 55 17 0.0 0.0 0.00 0.00 0.00 89 1015.1
20260507113747 55 13 0.0 0.0 0.00 0.00 0.00 89 1015.3
20260507113244 55 12 1.0 1.0 0.00 0.00 0.00 89 1015.3
20260507112742 55 15 0.0 0.0 0.00 0.00 0.00 89 1015.3
20260507112238 55 15 0.0 0.0 0.00 0.00 0.00 89 1015.4
20260507111736 55 14 0.0 0.0 0.00 0.00 0.00 89 1015.5
20260507111232 55 7 0.0 0.0 0.00 0.00 0.00 88 1015.5
20260507110728 55 334 1.0 1.0 0.00 0.00 0.00 88 1015.7
20260507110225 56 24 0.0 0.0 0.00 0.00 0.00 87 1015.7
20260507105722 56 32 0.0 0.0 0.00 0.00 0.00 87 1015.6
20260507105218 55 54 1.0 1.0 0.00 0.00 0.00 87 1015.6
20260507104716 55 54 1.0 1.0 0.00 0.00 0.00 87 1015.7
20260507104212 56 38 0.0 0.0 0.00 0.00 0.00 87 1015.6
20260507103708 56 39 0.0 0.0 0.00 0.00 0.00 87 1015.5
20260507103204 56 42 0.0 2.0 0.00 0.00 0.00 86 1015.6
20260507102701 55 42 0.0 1.0 0.00 0.00 0.00 87 1015.8
20260507102158 55 24 0.0 0.0 0.00 0.00 0.00 86 1015.5
20260507101653 55 13 0.0 0.0 0.00 0.00 0.00 86 1015.7
20260507101149 55 0 0.0 0.0 0.00 0.00 0.00 86 1015.6
20260507100647 56 30 0.0 0.0 0.00 0.00 0.00 85 1015.6
20260507100145 56 31 0.0 1.0 0.00 0.00 0.00 85 1015.5
20260507095643 56 25 0.0 0.0 0.00 0.00 0.00 85 1015.8
20260507095139 56 28 0.0 0.0 0.00 0.00 0.00 85 1015.7
20260507094635 56 32 0.0 0.0 0.00 0.00 0.00 85 1015.7
20260507094132 56 26 0.0 1.0 0.00 0.00 0.00 85 1015.8
20260507093629 56 15 1.0 1.0 0.00 0.00 0.00 85 1015.7
20260507093128 56 21 0.0 0.0 0.00 0.00 0.00 85 1015.8
20260507092624 56 21 0.0 1.0 0.00 0.00 0.00 85 1015.9
20260507092121 56 36 0.0 0.0 0.00 0.00 0.00 84 1015.9
20260507091618 56 31 0.0 0.0 0.00 0.00 0.00 85 1016.2
20260507091114 56 30 0.0 1.0 0.00 0.00 0.00 85 1016.2
20260507090610 56 21 0.0 1.0 0.00 0.00 0.00 85 1016.2
20260507090107 56 4 0.0 1.0 0.00 0.00 0.00 85 1016.3
20260507085604 56 18 0.0 0.0 0.00 0.00 0.00 85 1016.3
20260507085100 56 43 0.0 1.0 0.00 0.00 0.00 85 1016.4
20260507084557 56 26 0.0 0.0 0.00 0.00 0.00 85 1016.4
20260507084054 56 42 0.0 1.0 0.00 0.00 0.00 85 1016.5
20260507083550 56 3 0.0 0.0 0.00 0.00 0.00 85 1016.6
20260507083048 56 47 0.0 1.0 0.00 0.00 0.00 84 1016.5
20260507082544 57 39 0.0 1.0 0.00 0.00 0.00 85 1016.4
20260507082041 57 24 0.0 0.0 0.00 0.00 0.00 84 1016.5
20260507081536 57 32 0.0 0.0 0.00 0.00 0.00 84 1016.8
20260507081034 57 350 1.0 1.0 0.00 0.00 0.00 84 1016.6
20260507080529 57 6 0.0 0.0 0.00 0.00 0.00 83 1016.8
20260507080026 57 359 0.0 1.0 0.00 0.00 0.00 83 1016.7
20260507075521 58 3 0.0 0.0 0.00 0.00 0.00 83 1016.7
20260507075018 58 345 1.0 1.0 0.00 0.00 0.00 83 1016.4
20260507074514 58 5 0.0 0.0 0.00 0.00 0.00 82 1016.4
20260507074014 58 350 1.0 1.0 0.00 0.00 0.00 83 1016.7
20260507073509 58 0 0.0 1.0 0.00 0.00 0.00 82 1016.4
20260507073006 58 0 0.0 0.0 0.00 0.00 0.00 82 1016.6
20260507072503 58 339 1.0 1.0 0.00 0.00 0.00 82 1016.6
20260507072000 58 1 0.0 0.0 0.00 0.00 0.00 81 1016.5
20260507071457 58 350 1.0 1.0 0.00 0.00 0.00 81 1016.6
20260507070954 58 345 1.0 1.0 0.00 0.00 0.00 81 1016.6
20260507070451 58 341 1.0 2.0 0.00 0.00 0.00 81 1016.6
20260507065948 58 344 1.0 2.0 0.00 0.00 0.00 80 1016.6
20260507065444 59 315 1.0 2.0 0.00 0.00 0.00 80 1016.9
20260507064941 59 315 2.0 2.0 0.00 0.00 0.00 80 1016.7
20260507064440 59 328 2.0 2.0 0.00 0.00 0.00 80 1016.7
20260507063937 59 357 0.0 2.0 0.00 0.00 0.00 80 1016.7
20260507063434 59 312 1.0 1.0 0.00 0.00 0.00 79 1016.7
20260507062931 59 1 0.0 1.0 0.00 0.00 0.00 80 1017.0
20260507062428 59 351 0.0 2.0 0.00 0.00 0.00 79 1016.9
20260507061926 59 359 0.0 1.0 0.00 0.00 0.00 79 1016.7
20260507061424 59 334 1.0 1.0 0.00 0.00 0.00 78 1016.9
20260507060922 59 2 0.0 0.0 0.00 0.00 0.00 78 1016.8
20260507060418 59 349 1.0 1.0 0.00 0.00 0.00 78 1016.9
20260507055915 59 335 1.0 2.0 0.00 0.00 0.00 78 1017.0
20260507055410 59 355 0.0 1.0 0.00 0.00 0.00 77 1016.7
20260507054907 60 344 1.0 2.0 0.00 0.00 0.00 77 1016.7
20260507054403 60 355 0.0 1.0 0.00 0.00 0.00 76 1016.8
20260507053901 60 327 1.0 2.0 0.00 0.00 0.00 76 1016.7
20260507053358 60 306 2.0 2.0 0.00 0.00 0.00 76 1016.9
20260507052857 60 340 1.0 2.0 0.00 0.00 0.00 77 1016.9
20260507052354 60 356 1.0 2.0 0.00 0.00 0.00 77 1016.6
20260507051851 60 350 1.0 2.0 0.00 0.00 0.00 77 1016.7
20260507051348 60 346 1.0 1.0 0.00 0.00 0.00 77 1016.8
20260507050845 60 337 1.0 1.0 0.00 0.00 0.00 77 1016.7
20260507050342 60 340 1.0 2.0 0.00 0.00 0.00 77 1016.6
20260507045839 60 348 1.0 1.0 0.00 0.00 0.00 77 1016.7
20260507045335 60 341 2.0 2.0 0.00 0.00 0.00 77 1016.8
20260507044832 60 348 0.0 1.0 0.00 0.00 0.00 77 1016.7
20260507044329 60 347 1.0 2.0 0.00 0.00 0.00 77 1016.9
20260507043824 60 344 1.0 2.0 0.00 0.00 0.00 76 1016.6
20260507043321 60 307 1.0 2.0 0.00 0.00 0.00 76 1016.8
20260507042818 60 325 1.0 2.0 0.00 0.00 0.00 76 1016.9
20260507042313 60 308 1.0 1.0 0.00 0.00 0.00 76 1016.6
20260507041811 60 359 1.0 2.0 0.00 0.00 0.00 76 1016.6
20260507041307 60 323 1.0 2.0 0.00 0.00 0.00 75 1016.7
20260507040804 60 337 0.0 2.0 0.00 0.00 0.00 75 1016.6
20260507040300 60 323 1.0 2.0 0.00 0.00 0.00 74 1016.7
20260507035756 60 314 1.0 2.0 0.00 0.00 0.00 74 1016.6
20260507035252 61 338 1.0 2.0 0.00 0.00 0.00 73 1016.5
20260507034750 61 341 1.0 2.0 0.00 0.00 0.00 73 1016.5
20260507034246 61 4 1.0 3.0 0.00 0.00 0.00 73 1016.4
20260507033745 61 357 1.0 3.0 0.00 0.00 0.00 73 1016.2
20260507033242 61 302 2.0 3.0 0.00 0.00 0.00 73 1016.2
20260507032739 61 302 2.0 4.0 0.00 0.00 0.00 74 1016.3
20260507032235 61 309 2.0 3.0 0.00 0.00 0.00 74 1016.1
20260507031732 61 306 2.0 4.0 0.00 0.00 0.00 74 1016.3
20260507031228 61 297 2.0 3.0 0.00 0.00 0.00 73 1016.2
20260507030725 62 291 2.0 3.0 0.00 0.00 0.00 73 1016.0
20260507030223 62 312 2.0 4.0 0.00 0.00 0.00 72 1016.0
20260507025720 62 231 1.0 3.0 0.00 0.00 0.00 72 1016.0
20260507025217 62 304 2.0 2.0 0.00 0.00 0.00 71 1016.0
20260507024715 62 289 2.0 3.0 0.00 0.00 0.00 71 1016.1
20260507024212 63 328 2.0 4.0 0.00 0.00 0.00 71 1015.9
20260507023707 63 332 1.0 3.0 0.00 0.00 0.00 70 1015.8
20260507023205 63 349 1.0 3.0 0.00 0.00 0.00 69 1015.8
20260507022702 64 345 1.0 3.0 0.00 0.00 0.00 69 1015.8
20260507022157 64 358 1.0 2.0 0.00 0.00 0.00 68 1015.8
20260507021654 65 354 2.0 2.0 0.00 0.00 0.00 67 1015.7
20260507021149 65 299 2.0 2.0 0.00 0.00 0.00 67 1015.5
20260507020648 65 303 3.0 4.0 0.00 0.00 0.00 66 1015.5
20260507020143 65 309 1.0 3.0 0.00 0.00 0.00 67 1015.5
20260507015643 65 324 2.0 3.0 0.00 0.00 0.00 67 1015.4
20260507015139 66 358 1.0 3.0 0.00 0.00 0.00 66 1015.6
20260507014636 66 296 2.0 4.0 0.00 0.00 0.00 65 1015.5
20260507014132 68 4 0.0 4.0 0.00 0.00 0.00 63 1015.5
20260507013629 68 336 1.0 1.0 0.00 0.00 0.00 62 1015.5
20260507013125 68 299 1.0 6.0 0.00 0.00 0.00 62 1015.3
20260507012623 68 99 0.0 3.0 0.00 0.00 0.00 63 1015.3
20260507012118 68 61 1.0 4.0 0.00 0.00 0.00 63 1015.4
20260507011617 68 301 2.0 4.0 0.00 0.00 0.00 62 1015.3
20260507011113 68 359 1.0 4.0 0.00 0.00 0.00 62 1015.5
20260507010608 68 358 2.0 2.0 0.00 0.00 0.00 64 1015.4
20260507010104 68 257 2.0 4.0 0.00 0.00 0.00 66 1015.3
20260507005602 68 21 2.0 3.0 0.00 0.00 0.00 65 1015.3
20260507005057 68 290 3.0 6.0 0.00 0.00 0.00 65 1015.3
20260507004554 68 242 1.0 4.0 0.00 0.00 0.00 64 1015.2
20260507004052 69 200 3.0 4.0 0.00 0.00 0.00 61 1015.3
20260507003548 69 333 1.0 3.0 0.00 0.00 0.00 61 1015.5
20260507003043 69 305 3.0 4.0 0.00 0.00 0.00 62 1015.1
20260507002540 70 274 2.0 4.0 0.00 0.00 0.00 60 1015.2
20260507002036 69 306 2.0 4.0 0.00 0.00 0.00 61 1015.2
20260507001533 70 298 2.0 4.0 0.00 0.00 0.00 60 1015.2
20260507001030 70 220 2.0 4.0 0.00 0.00 0.00 59 1015.0
20260507000526 71 321 3.0 6.0 0.00 0.00 0.00 58 1015.1
20260507000022 71 239 1.0 3.0 0.00 0.00 0.00 56 1015.2
20260506235519 72 1 2.0 4.0 0.00 0.00 0.00 53 1015.0
20260506235015 73 297 2.0 3.0 0.00 0.00 0.00 51 1015.0
20260506234513 72 356 1.0 4.0 0.00 0.00 0.00 52 1015.0
20260506234009 72 3 2.0 7.0 0.00 0.00 0.00 52 1015.2
20260506233506 72 329 2.0 3.0 0.00 0.00 0.00 52 1015.0
20260506233003 72 310 1.0 7.0 0.00 0.00 0.00 52 1014.9
20260506232459 72 255 2.0 4.0 0.00 0.00 0.00 51 1015.0
20260506231955 72 341 1.0 4.0 0.00 0.00 0.00 51 1015.1
20260506231452 73 315 4.0 4.0 0.00 0.00 0.00 48 1015.2
20260506230950 72 0 0.0 3.0 0.00 0.00 0.00 50 1015.0
20260506230446 73 329 1.0 6.0 0.00 0.00 0.00 47 1015.1
20260506225942 73 3 0.0 7.0 0.00 0.00 0.00 46 1015.2
20260506225440 72 335 3.0 4.0 0.00 0.00 0.00 45 1015.4
20260506224936 73 309 3.0 4.0 0.00 0.00 0.00 45 1015.2
20260506224434 72 344 1.0 2.0 0.00 0.00 0.00 46 1015.3
20260506223930 73 9 1.0 6.0 0.00 0.00 0.00 47 1015.3
20260506223426 73 290 2.0 3.0 0.00 0.00 0.00 45 1015.7
20260506222923 73 347 1.0 2.0 0.00 0.00 0.00 46 1015.5
20260506222420 73 345 1.0 3.0 0.00 0.00 0.00 44 1015.6
20260506221917 73 0 0.0 4.0 0.00 0.00 0.00 44 1015.6
20260506221414 73 323 1.0 2.0 0.00 0.00 0.00 46 1015.7
20260506220912 73 308 2.0 4.0 0.00 0.00 0.00 47 1015.9
20260506220407 74 317 3.0 6.0 0.00 0.00 0.00 46 1015.6
20260506215904 73 196 2.0 2.0 0.00 0.00 0.00 47 1015.9
20260506215400 73 326 3.0 4.0 0.00 0.00 0.00 49 1015.9
20260506214856 72 262 1.0 3.0 0.00 0.00 0.00 50 1015.9
20260506214353 72 327 4.0 6.0 0.00 0.00 0.00 50 1016.1
20260506213851 72 263 3.0 4.0 0.00 0.00 0.00 51 1015.9
20260506213348 72 271 4.0 6.0 0.00 0.00 0.00 52 1016.1
20260506212845 73 236 3.0 7.0 0.00 0.00 0.00 51 1016.1
20260506212341 73 166 2.0 3.0 0.00 0.00 0.00 52 1016.1
20260506211836 72 297 2.0 6.0 0.00 0.00 0.00 55 1016.3
20260506211332 71 26 1.0 7.0 0.00 0.00 0.00 56 1016.2
20260506210830 72 331 3.0 7.0 0.00 0.00 0.00 57 1016.6
20260506210326 72 314 4.0 6.0 0.00 0.00 0.00 56 1016.3
20260506205824 72 58 1.0 4.0 0.00 0.00 0.00 57 1016.2
20260506205320 73 5 1.0 6.0 0.00 0.00 0.00 56 1016.2
20260506204816 73 256 2.0 3.0 0.00 0.00 0.00 57 1016.2
20260506204314 73 291 2.0 9.0 0.00 0.00 0.00 56 1016.5
20260506203811 72 148 2.0 3.0 0.00 0.00 0.00 57 1016.5
20260506203309 72 351 1.0 6.0 0.00 0.00 0.00 58 1016.6
20260506202805 72 333 2.0 7.0 0.00 0.00 0.00 56 1016.6
20260506202305 73 351 3.0 8.0 0.00 0.00 0.00 55 1016.6
20260506201758 72 121 3.0 7.0 0.00 0.00 0.00 56 1016.6
20260506201255 73 255 3.0 3.0 0.00 0.00 0.00 55 1016.6
20260506200753 74 187 4.0 8.0 0.00 0.00 0.00 53 1016.8
20260506200249 73 6 1.0 2.0 0.00 0.00 0.00 55 1017.0
20260506195745 74 8 2.0 3.0 0.00 0.00 0.00 54 1017.0
20260506195242 73 171 2.0 3.0 0.00 0.00 0.00 56 1017.1
20260506194739 73 261 2.0 6.0 0.00 0.00 0.00 56 1017.0
20260506194235 73 290 2.0 6.0 0.00 0.00 0.00 57 1017.0
20260506193734 72 111 1.0 4.0 0.00 0.00 0.00 56 1017.3
20260506193230 72 300 2.0 4.0 0.00 0.00 0.00 57 1017.0
20260506192726 71 6 2.0 4.0 0.00 0.00 0.00 58 1017.2
20260506192223 71 320 2.0 4.0 0.00 0.00 0.00 59 1017.2
20260506191720 70 70 1.0 3.0 0.00 0.00 0.00 61 1017.3
20260506191216 72 253 3.0 6.0 0.00 0.00 0.00 58 1017.3
20260506190714 72 30 2.0 8.0 0.00 0.00 0.00 58 1017.5
20260506190210 71 242 1.0 4.0 0.00 0.00 0.00 60 1017.4
20260506185707 70 277 2.0 4.0 0.00 0.00 0.00 60 1017.5
20260506185203 69 3 1.0 3.0 0.00 0.00 0.00 62 1017.6
20260506184656 71 195 5.0 8.0 0.00 0.00 0.00 60 1017.4
20260506184153 71 168 2.0 8.0 0.00 0.00 0.00 59 1017.4
20260506183649 72 3 2.0 3.0 0.00 0.00 0.00 57 1017.7
20260506183145 71 316 0.0 3.0 0.00 0.00 0.00 59 1017.6
20260506182643 71 308 3.0 4.0 0.00 0.00 0.00 58 1017.5
20260506182139 71 137 2.0 3.0 0.00 0.00 0.00 59 1017.7
20260506181637 71 159 2.0 2.0 0.00 0.00 0.00 58 1017.6
20260506181134 72 88 2.0 4.0 0.00 0.00 0.00 58 1017.6
20260506180631 71 27 0.0 6.0 0.00 0.00 0.00 58 1017.6
20260506180127 68 337 2.0 4.0 0.00 0.00 0.00 62 1017.6
20260506175624 69 177 3.0 7.0 0.00 0.00 0.00 61 1017.7
20260506175120 70 175 3.0 6.0 0.00 0.00 0.00 60 1017.6
20260506174619 71 191 2.0 3.0 0.00 0.00 0.00 59 1017.5
20260506174115 70 24 0.0 3.0 0.00 0.00 0.00 61 1017.7
20260506173613 69 21 0.0 2.0 0.00 0.00 0.00 62 1017.7
20260506173109 69 55 1.0 3.0 0.00 0.00 0.00 64 1017.6
20260506172607 69 156 3.0 3.0 0.00 0.00 0.00 63 1017.7
20260506172103 68 247 3.0 4.0 0.00 0.00 0.00 64 1017.8
20260506171601 65 149 4.0 7.0 0.00 0.00 0.00 68 1017.7
20260506171058 65 159 4.0 9.0 0.00 0.00 0.00 67 1017.6
20260506170555 68 142 2.0 4.0 0.00 0.00 0.00 64 1017.9
20260506170053 69 153 1.0 3.0 0.00 0.00 0.00 63 1017.7
20260506165551 68 221 2.0 6.0 0.00 0.00 0.00 60 1017.8
20260506165042 69 192 2.0 3.0 0.00 0.00 0.00 58 1017.6
20260506164539 70 278 2.0 3.0 0.00 0.00 0.00 58 1017.7
20260506164036 69 5 0.0 2.0 0.00 0.00 0.00 61 1017.8
20260506163532 69 70 0.0 3.0 0.00 0.00 0.00 61 1018.1
20260506163028 68 267 1.0 2.0 0.00 0.00 0.00 63 1017.8
20260506162524 67 94 1.0 2.0 0.00 0.00 0.00 65 1017.8
20260506162021 66 93 2.0 4.0 0.00 0.00 0.00 64 1017.8
20260506161518 66 43 1.0 4.0 0.00 0.00 0.00 65 1017.9
20260506161010 65 22 0.0 2.0 0.00 0.00 0.00 67 1017.8
20260506160508 64 65 2.0 6.0 0.00 0.00 0.00 68 1017.8
20260506160005 63 87 2.0 4.0 0.00 0.00 0.00 70 1017.9
20260506155503 62 120 2.0 2.0 0.00 0.00 0.00 72 1018.0
20260506153634 62 133 2.0 3.0 0.00 0.00 0.00 75 1017.8
20260506153131 62 111 4.0 6.0 0.00 0.00 0.00 75 1017.8
20260506152628 61 81 2.0 3.0 0.00 0.00 0.00 74 1017.7
20260506152126 61 94 2.0 4.0 0.00 0.00 0.00 73 1017.7
20260506151624 61 64 2.0 3.0 0.00 0.00 0.00 71 1017.8
20260506151121 61 81 1.0 2.0 0.00 0.00 0.00 70 1017.9
20260506150617 61 136 2.0 4.0 0.00 0.00 0.00 71 1017.8
20260506150114 61 82 3.0 4.0 0.00 0.00 0.00 70 1017.9
20260506145611 61 98 3.0 4.0 0.00 0.00 0.00 69 1017.9
20260506145108 60 64 2.0 2.0 0.00 0.00 0.00 69 1018.0
20260506144605 59 56 1.0 2.0 0.00 0.00 0.00 70 1017.9
20260506144102 59 65 1.0 2.0 0.00 0.00 0.00 71 1017.8
20260506143600 59 95 2.0 3.0 0.00 0.00 0.00 71 1017.8
20260506143058 58 92 2.0 2.0 0.00 0.00 0.00 73 1017.6